Terminal Aerodrome Forecast
Issued by NWS Boise, ID

Home | Current Version | Previous Version | Text Only | Print | Product List | Glossary On
Versions: 1 2 3 4 5 6 7 8 9 10 11 12 13 14 15 16
000
FTUS45 KBOI 180529
TAFBOI
TAF
KBOI 180529Z 1806/1906 32010KT P6SM VCSH BKN050 OVC080
     FM181200 31008KT P6SM BKN060 OVC120
     FM181700 32009KT P6SM SCT200=

USA.gov is the U.S. government's official web portal to all federal, state and local government web resources and services.